Time,TemperatureF,DewpointF,PressureIn,WindDirection,WindDirectionDegrees,WindSpeedMPH,WindSpeedGustMPH,Humidity,HourlyPrecipIn,Conditions,Clouds,dailyrainin,SolarRadiationWatts/m^2,SoftwareType,DateUTC
2013-01-16 00:03:00,28.0,18.0,-100.00,NE,42,2.0,3.0,65,0.00,,,0.00,0.000000,,2013-01-16 05:03:00,
2013-01-16 00:33:00,28.0,18.0,-100.00,ENE,66,3.0,4.0,65,0.00,,,0.00,0.000000,,2013-01-16 05:33:00,
2013-01-16 00:42:00,28.0,18.0,-100.00,ENE,66,3.0,4.0,65,0.00,,,0.00,0.000000,,2013-01-16 05:42:00,
2013-01-16 00:53:00,28.0,18.0,-100.00,ENE,66,3.0,4.0,65,0.00,,,0.00,0.000000,,2013-01-16 05:53:00,
2013-01-16 01:03:00,28.0,18.0,-100.00,ENE,66,3.0,4.0,65,0.00,,,0.00,0.000000,,2013-01-16 06:03:00,
2013-01-16 01:33:00,29.0,19.0,-100.00,East,101,3.0,6.0,65,0.00,,,0.00,0.000000,,2013-01-16 06:33:00,
2013-01-16 01:43:00,29.0,19.0,-100.00,East,101,3.0,6.0,65,0.00,,,0.00,0.000000,,2013-01-16 06:43:00,
2013-01-16 01:53:00,29.0,19.0,-100.00,East,101,3.0,6.0,65,0.00,,,0.00,0.000000,,2013-01-16 06:53:00,
2013-01-16 02:02:00,29.0,19.0,-100.00,East,101,3.0,6.0,65,0.00,,,0.00,0.000000,,2013-01-16 07:02:00,
2013-01-16 02:33:00,28.0,23.0,-100.00,SE,127,5.0,8.0,80,0.00,,,0.00,0.000000,,2013-01-16 07:33:00,
2013-01-16 02:42:00,28.0,23.0,-100.00,SE,127,5.0,8.0,80,0.00,,,0.00,0.000000,,2013-01-16 07:42:00,
2013-01-16 02:52:00,28.0,23.0,-100.00,SE,127,5.0,8.0,80,0.00,,,0.00,0.000000,,2013-01-16 07:52:00,
2013-01-16 03:03:00,28.0,23.0,-100.00,SE,127,5.0,8.0,80,0.00,,,0.00,0.000000,,2013-01-16 08:03:00,
2013-01-16 03:33:00,27.0,24.0,-100.00,ESE,121,5.0,9.0,89,0.00,,,0.00,0.000000,,2013-01-16 08:33:00,
2013-01-16 03:42:00,27.0,24.0,-100.00,ESE,121,5.0,9.0,89,0.00,,,0.00,0.000000,,2013-01-16 08:42:00,
2013-01-16 03:53:00,27.0,24.0,-100.00,ESE,121,5.0,9.0,89,0.00,,,0.00,0.000000,,2013-01-16 08:53:00,
2013-01-16 04:02:00,27.0,24.0,-100.00,ESE,121,5.0,9.0,89,0.00,,,0.00,0.000000,,2013-01-16 09:02:00,
2013-01-16 04:33:00,27.0,24.0,-100.00,ESE,109,4.0,7.0,89,0.00,,,0.00,0.000000,,2013-01-16 09:33:00,
2013-01-16 04:43:00,27.0,24.0,-100.00,ESE,109,4.0,7.0,89,0.00,,,0.00,0.000000,,2013-01-16 09:43:00,
2013-01-16 04:53:00,27.0,24.0,-100.00,ESE,109,4.0,7.0,89,0.00,,,0.00,0.000000,,2013-01-16 09:53:00,
2013-01-16 05:02:00,27.0,24.0,-100.00,ESE,109,4.0,7.0,89,0.00,,,0.00,0.000000,,2013-01-16 10:02:00,
2013-01-16 05:33:00,27.0,24.0,-100.00,NE,56,2.0,5.0,90,0.00,,,0.00,0.000000,,2013-01-16 10:33:00,
2013-01-16 05:43:00,27.0,24.0,-100.00,NE,56,2.0,5.0,90,0.00,,,0.00,0.000000,,2013-01-16 10:43:00,
2013-01-16 05:53:00,27.0,24.0,-100.00,NE,56,2.0,5.0,90,0.00,,,0.00,0.000000,,2013-01-16 10:53:00,
2013-01-16 06:02:00,27.0,24.0,-100.00,NE,56,2.0,5.0,90,0.00,,,0.00,0.000000,,2013-01-16 11:02:00,
2013-01-16 06:33:00,27.0,24.0,-100.00,ESE,113,3.0,4.0,89,0.00,,,0.00,0.000000,,2013-01-16 11:33:00,
2013-01-16 06:43:00,27.0,24.0,-100.00,ESE,113,3.0,4.0,89,0.00,,,0.00,0.000000,,2013-01-16 11:43:00,
2013-01-16 06:53:00,27.0,24.0,-100.00,ESE,113,3.0,4.0,89,0.00,,,0.00,0.000000,,2013-01-16 11:53:00,
2013-01-16 07:03:00,27.0,24.0,-100.00,ESE,113,3.0,4.0,89,0.00,,,0.00,0.000000,,2013-01-16 12:03:00,
2013-01-16 07:33:00,27.0,24.0,-100.00,ESE,105,2.0,4.0,88,0.00,,,0.00,0.000000,,2013-01-16 12:33:00,
2013-01-16 07:43:00,27.0,24.0,-100.00,ESE,105,2.0,4.0,88,0.00,,,0.00,0.000000,,2013-01-16 12:43:00,
2013-01-16 07:53:00,27.0,24.0,-100.00,ESE,105,2.0,4.0,88,0.00,,,0.00,0.000000,,2013-01-16 12:53:00,
2013-01-16 08:03:00,27.0,24.0,-100.00,ESE,105,2.0,4.0,88,0.00,,,0.00,0.000000,,2013-01-16 13:03:00,
2013-01-16 08:33:00,27.0,24.0,-100.00,ESE,118,3.0,3.0,88,0.00,,,0.00,0.000000,,2013-01-16 13:33:00,
2013-01-16 08:43:00,27.0,24.0,-100.00,ESE,118,3.0,3.0,88,0.00,,,0.00,0.000000,,2013-01-16 13:43:00,
2013-01-16 08:53:00,27.0,24.0,-100.00,ESE,118,3.0,3.0,88,0.00,,,0.00,0.000000,,2013-01-16 13:53:00,
2013-01-16 09:03:00,27.0,24.0,-100.00,ESE,118,3.0,3.0,88,0.00,,,0.00,0.000000,,2013-01-16 14:03:00,
2013-01-16 09:33:00,28.0,25.0,-100.00,SE,128,3.0,3.0,90,0.00,,,0.00,10.000000,,2013-01-16 14:33:00,
2013-01-16 09:43:00,28.0,25.0,-100.00,SE,128,3.0,3.0,90,0.00,,,0.00,10.000000,,2013-01-16 14:43:00,
2013-01-16 09:53:00,28.0,25.0,-100.00,SE,128,3.0,3.0,90,0.00,,,0.00,10.000000,,2013-01-16 14:53:00,
2013-01-16 10:03:00,28.0,25.0,-100.00,SE,128,3.0,3.0,90,0.00,,,0.00,10.000000,,2013-01-16 15:03:00,
2013-01-16 10:33:00,29.0,26.0,-100.00,SSE,151,2.0,4.0,89,0.00,,,0.00,18.000000,,2013-01-16 15:33:00,
2013-01-16 10:43:00,29.0,26.0,-100.00,SSE,151,2.0,4.0,89,0.00,,,0.00,18.000000,,2013-01-16 15:43:00,
2013-01-16 10:53:00,29.0,26.0,-100.00,SSE,151,2.0,4.0,89,0.00,,,0.00,18.000000,,2013-01-16 15:53:00,
2013-01-16 11:04:00,29.0,26.0,-100.00,SSE,151,2.0,4.0,89,0.00,,,0.00,18.000000,,2013-01-16 16:04:00,
2013-01-16 11:33:00,30.0,27.0,-100.00,South,179,3.0,5.0,89,0.00,,,0.00,28.000000,,2013-01-16 16:33:00,
2013-01-16 11:43:00,30.0,27.0,-100.00,South,179,3.0,5.0,89,0.00,,,0.00,28.000000,,2013-01-16 16:43:00,
2013-01-16 11:53:00,30.0,27.0,-100.00,South,179,3.0,5.0,89,0.00,,,0.00,28.000000,,2013-01-16 16:53:00,
2013-01-16 12:03:00,30.0,27.0,-100.00,South,179,3.0,5.0,89,0.00,,,0.00,28.000000,,2013-01-16 17:03:00,
2013-01-16 12:33:00,31.0,28.0,-100.00,South,180,4.0,7.0,90,0.00,,,0.00,28.000000,,2013-01-16 17:33:00,
2013-01-16 12:44:00,31.0,28.0,-100.00,South,180,4.0,7.0,90,0.00,,,0.00,28.000000,,2013-01-16 17:44:00,
2013-01-16 12:53:00,31.0,28.0,-100.00,South,180,4.0,7.0,90,0.00,,,0.00,28.000000,,2013-01-16 17:53:00,
2013-01-16 13:03:00,31.0,28.0,-100.00,South,180,4.0,7.0,90,0.00,,,0.00,28.000000,,2013-01-16 18:03:00,
2013-01-16 13:33:00,31.0,28.0,-100.00,SW,217,3.0,6.0,90,0.00,,,0.00,25.000000,,2013-01-16 18:33:00,
2013-01-16 13:43:00,31.0,28.0,-100.00,SW,217,3.0,6.0,90,0.00,,,0.00,25.000000,,2013-01-16 18:43:00,
2013-01-16 13:53:00,31.0,28.0,-100.00,SW,217,3.0,6.0,90,0.00,,,0.00,25.000000,,2013-01-16 18:53:00,
2013-01-16 14:03:00,31.0,28.0,-100.00,SW,217,3.0,6.0,90,0.00,,,0.00,25.000000,,2013-01-16 19:03:00,
2013-01-16 14:33:00,32.0,29.0,-100.00,WSW,245,5.0,8.0,89,0.00,,,0.00,34.000000,,2013-01-16 19:33:00,
2013-01-16 14:43:00,32.0,29.0,-100.00,WSW,245,5.0,8.0,89,0.00,,,0.00,34.000000,,2013-01-16 19:43:00,
2013-01-16 14:53:00,32.0,29.0,-100.00,WSW,245,5.0,8.0,89,0.00,,,0.00,34.000000,,2013-01-16 19:53:00,
2013-01-16 15:03:00,32.0,29.0,-100.00,WSW,245,5.0,8.0,89,0.00,,,0.00,34.000000,,2013-01-16 20:03:00,
2013-01-16 15:33:00,33.0,30.0,-100.00,WSW,243,6.0,9.0,88,0.00,,,0.00,46.000000,,2013-01-16 20:33:00,
2013-01-16 15:43:00,33.0,30.0,-100.00,WSW,243,6.0,9.0,88,0.00,,,0.00,46.000000,,2013-01-16 20:43:00,
2013-01-16 15:53:00,33.0,30.0,-100.00,WSW,243,6.0,9.0,88,0.00,,,0.00,46.000000,,2013-01-16 20:53:00,
2013-01-16 16:03:00,33.0,30.0,-100.00,WSW,243,6.0,9.0,88,0.00,,,0.00,46.000000,,2013-01-16 21:03:00,
2013-01-16 16:33:00,32.0,27.0,-100.00,WSW,243,4.0,7.0,82,0.05,,,0.05,69.000000,,2013-01-16 21:33:00,
2013-01-16 16:43:00,32.0,27.0,-100.00,WSW,243,4.0,7.0,82,0.05,,,0.05,69.000000,,2013-01-16 21:43:00,
2013-01-16 16:53:00,32.0,27.0,-100.00,WSW,243,4.0,7.0,82,0.05,,,0.05,69.000000,,2013-01-16 21:53:00,
2013-01-16 17:03:00,32.0,27.0,-100.00,WSW,243,4.0,7.0,82,0.05,,,0.05,69.000000,,2013-01-16 22:03:00,
2013-01-16 17:33:00,31.0,27.0,-100.00,SW,217,4.0,7.0,85,0.00,,,0.05,24.000000,,2013-01-16 22:33:00,
2013-01-16 17:43:00,31.0,27.0,-100.00,SW,217,4.0,7.0,85,0.00,,,0.05,24.000000,,2013-01-16 22:43:00,
2013-01-16 17:53:00,31.0,27.0,-100.00,SW,217,4.0,7.0,85,0.00,,,0.05,24.000000,,2013-01-16 22:53:00,
2013-01-16 18:03:00,31.0,27.0,-100.00,SW,217,4.0,7.0,85,0.00,,,0.05,24.000000,,2013-01-16 23:03:00,
2013-01-16 18:33:00,30.0,26.0,-100.00,SW,221,6.0,10.0,85,0.01,,,0.06,0.000000,,2013-01-16 23:33:00,
2013-01-16 18:43:00,30.0,26.0,-100.00,SW,221,6.0,10.0,85,0.01,,,0.06,0.000000,,2013-01-16 23:43:00,
2013-01-16 18:53:00,30.0,26.0,-100.00,SW,221,6.0,10.0,85,0.01,,,0.06,0.000000,,2013-01-16 23:53:00,
2013-01-16 19:02:00,30.0,26.0,-100.00,SW,221,6.0,10.0,85,0.01,,,0.06,0.000000,,2013-01-17 00:02:00,
2013-01-16 19:33:00,29.0,25.0,-100.00,SW,225,5.0,8.0,85,0.00,,,0.06,0.000000,,2013-01-17 00:33:00,
2013-01-16 19:42:00,29.0,25.0,-100.00,SW,225,5.0,8.0,85,0.00,,,0.06,0.000000,,2013-01-17 00:42:00,
2013-01-16 19:53:00,29.0,25.0,-100.00,SW,225,5.0,8.0,85,0.00,,,0.06,0.000000,,2013-01-17 00:53:00,
2013-01-16 20:02:00,29.0,25.0,-100.00,SW,225,5.0,8.0,85,0.00,,,0.06,0.000000,,2013-01-17 01:02:00,
2013-01-16 20:33:00,29.0,25.0,-100.00,SW,227,6.0,13.0,84,0.00,,,0.06,0.000000,,2013-01-17 01:33:00,
2013-01-16 20:43:00,29.0,25.0,-100.00,SW,227,6.0,13.0,84,0.00,,,0.06,0.000000,,2013-01-17 01:43:00,
2013-01-16 20:53:00,29.0,25.0,-100.00,SW,227,6.0,13.0,84,0.00,,,0.06,0.000000,,2013-01-17 01:53:00,
2013-01-16 21:02:00,29.0,25.0,-100.00,SW,227,6.0,13.0,84,0.00,,,0.06,0.000000,,2013-01-17 02:02:00,
2013-01-16 21:32:00,28.0,23.0,-100.00,SW,234,5.0,11.0,80,0.00,,,0.06,0.000000,,2013-01-17 02:32:00,
2013-01-16 21:43:00,28.0,23.0,-100.00,SW,234,5.0,11.0,80,0.00,,,0.06,0.000000,,2013-01-17 02:43:00,
2013-01-16 21:52:00,28.0,23.0,-100.00,SW,234,5.0,11.0,80,0.00,,,0.06,0.000000,,2013-01-17 02:52:00,
2013-01-16 22:03:00,28.0,23.0,-100.00,SW,234,5.0,11.0,80,0.00,,,0.06,0.000000,,2013-01-17 03:03:00,
2013-01-16 22:33:00,28.0,22.0,-100.00,SW,230,7.0,15.0,79,0.00,,,0.06,0.000000,,2013-01-17 03:33:00,
2013-01-16 22:43:00,28.0,22.0,-100.00,SW,230,7.0,15.0,79,0.00,,,0.06,0.000000,,2013-01-17 03:43:00,
2013-01-16 22:53:00,28.0,22.0,-100.00,SW,230,7.0,15.0,79,0.00,,,0.06,0.000000,,2013-01-17 03:53:00,
2013-01-16 23:02:00,28.0,22.0,-100.00,SW,230,7.0,15.0,79,0.00,,,0.06,0.000000,,2013-01-17 04:02:00,
2013-01-16 23:33:00,27.0,22.0,-100.00,WSW,240,4.0,9.0,80,0.00,,,0.06,0.000000,,2013-01-17 04:33:00,
2013-01-16 23:43:00,27.0,22.0,-100.00,WSW,240,4.0,9.0,80,0.00,,,0.06,0.000000,,2013-01-17 04:43:00,
2013-01-16 23:53:00,27.0,22.0,-100.00,WSW,240,4.0,9.0,80,0.00,,,0.06,0.000000,,2013-01-17 04:53:00,